This is the latest recevied weather packets stored in our database for station/object KE6YLF. If no packets are shown the sender has not sent any weather packets the latest 10 day(s).
| Time | Temp. | Humidity | Pressure | Rain* | Wind** | Luminosity | Snow |
|---|---|---|---|---|---|---|---|
| 1788699885 | 26.11° C | 51% | 1075.9 hPa | 0 mm | - | - | - |
| 1788699580 | 26.11° C | 51% | 1075.6 hPa | 0 mm | - | - | - |
| 1788699278 | 26.11° C | 52% | 1075.7 hPa | 0 mm | - | - | - |
| 1788698977 | 26.11° C | 52% | 1075.6 hPa | 0 mm | - | - | - |
| 1788698674 | 26.11° C | 51% | 1075.5 hPa | 0 mm | - | - | - |
| 1788698373 | 26.11° C | 51% | 1075.6 hPa | 0 mm | - | - | - |
| 1788698072 | 26.67° C | 50% | 1075.5 hPa | 0 mm | - | - | - |
| 1788697767 | 26.67° C | 50% | 1075.5 hPa | 0 mm | - | - | - |
| 1788697461 | 26.67° C | 50% | 1075.6 hPa | 0 mm | - | - | - |
| 1788697159 | 26.67° C | 50% | 1075.6 hPa | 0 mm | - | - | - |
| 1788696854 | 27.78° C | 48% | 1075.5 hPa | 0 mm | - | - | - |
| 1788696550 | 27.22° C | 48% | 1075.6 hPa | 0 mm | - | - | - |
| 1788696246 | 26.67° C | 49% | 1075.7 hPa | 0 mm | - | - | - |
| 1788695942 | 27.22° C | 48% | 1075.7 hPa | 0 mm | - | - | - |
| 1788695637 | 27.78° C | 48% | 1075.7 hPa | 0 mm | - | - | - |
| 1788695336 | 27.78° C | 47% | 1075.7 hPa | 0 mm | - | - | - |
| 1788695032 | 27.78° C | 47% | 1075.6 hPa | 0 mm | - | - | - |
| 1788694727 | 27.78° C | 47% | 1075.9 hPa | 0 mm | - | - | - |
| 1788694426 | 27.78° C | 47% | 1075.6 hPa | 0 mm | - | - | - |
| 1788694121 | 27.78° C | 47% | 1075.7 hPa | 0 mm | - | - | - |
| 1788693817 | 27.78° C | 47% | 1075.7 hPa | 0 mm | - | - | - |
| 1788693512 | 27.78° C | 47% | 1075.7 hPa | 0 mm | - | - | - |
| 1788693211 | 27.78° C | 47% | 1075.9 hPa | 0 mm | - | - | - |
| 1788692906 | 27.78° C | 47% | 1075.6 hPa | 0 mm | - | - | - |
| 1788692603 | 27.78° C | 48% | 1075.7 hPa | 0 mm | - | - | - |
* Rain latest hour (hover to see other rain measurements)
** Current wind speed in m/s (hover to see current wind gust speed)